Saint Bonnet de Bellac- Haute Vienne - France
Donnes mto: mardi, 18/09/2012
Date Horaire Temp. E. Hum. E. P.atmo. Pluie Vent Direction Direction Ensoleilleme Solaire P. de rose Temp au vent Rafales
18/09/2012 00:00 15,9 C 69 % 1014,3 hPa 0,0 mm 0,0 km/h (0 Bft) SO 225 0 min 0 W/m 10,2 C 15,9 C 0,0 km/h (0 Bft)
18/09/2012 00:10 15,6 C 69 % 1014,3 hPa 0,0 mm 0,0 km/h (0 Bft) SO 225 0 min 0 W/m 9,9 C 15,6 C 0,0 km/h (0 Bft)
18/09/2012 00:20 15,3 C 70 % 1014,3 hPa 0,0 mm 0,0 km/h (0 Bft) S-SO 202 0 min 0 W/m 9,9 C 15,3 C 0,0 km/h (0 Bft)
18/09/2012 00:30 15,1 C 71 % 1014,3 hPa 0,0 mm 0,0 km/h (0 Bft) S-SO 202 0 min 0 W/m 9,9 C 15,1 C 0,0 km/h (0 Bft)
18/09/2012 00:40 14,8 C 72 % 1014,3 hPa 0,0 mm 0,0 km/h (0 Bft) S-SO 202 0 min 0 W/m 9,8 C 14,8 C 0,0 km/h (0 Bft)
18/09/2012 00:50 14,6 C 72 % 1014,3 hPa 0,0 mm 0,0 km/h (0 Bft) S-SO 202 0 min 0 W/m 9,6 C 14,6 C 0,0 km/h (0 Bft)
18/09/2012 01:00 14,3 C 74 % 1014,3 hPa 0,0 mm 0,0 km/h (0 Bft) S-SO 202 0 min 0 W/m 9,7 C 14,3 C 1,4 km/h (1 Bft)
18/09/2012 01:10 14,2 C 76 % 1014,2 hPa 0,0 mm 0,0 km/h (0 Bft) S-SO 202 0 min 0 W/m 10,0 C 14,2 C 0,0 km/h (0 Bft)
18/09/2012 01:20 14,1 C 77 % 1014,2 hPa 0,0 mm 0,0 km/h (0 Bft) SO 225 0 min 0 W/m 10,1 C 14,1 C 0,0 km/h (0 Bft)
18/09/2012 01:30 13,9 C 78 % 1014,2 hPa 0,0 mm 0,0 km/h (0 Bft) S-SO 202 0 min 0 W/m 10,1 C 13,9 C 3,2 km/h (1 Bft)
18/09/2012 01:40 13,9 C 79 % 1014,1 hPa 0,0 mm 0,0 km/h (0 Bft) S-SO 202 0 min 0 W/m 10,3 C 13,9 C 0,0 km/h (0 Bft)
18/09/2012 01:50 13,8 C 79 % 1014,1 hPa 0,0 mm 0,0 km/h (0 Bft) S-SO 202 0 min 0 W/m 10,2 C 13,8 C 0,0 km/h (0 Bft)
18/09/2012 02:00 13,6 C 80 % 1014,1 hPa 0,0 mm 0,0 km/h (0 Bft) S 180 0 min 0 W/m 10,2 C 13,6 C 0,0 km/h (0 Bft)
18/09/2012 02:10 13,4 C 80 % 1014,2 hPa 0,0 mm 0,0 km/h (0 Bft) S 180 0 min 0 W/m 10,0 C 13,4 C 0,0 km/h (0 Bft)
18/09/2012 02:20 13,4 C 81 % 1014,1 hPa 0,0 mm 0,0 km/h (0 Bft) S-SO 202 0 min 0 W/m 10,2 C 13,4 C 0,0 km/h (0 Bft)
18/09/2012 02:30 13,3 C 81 % 1014,1 hPa 0,0 mm 0,0 km/h (0 Bft) S-SO 202 0 min 0 W/m 10,1 C 13,3 C 0,0 km/h (0 Bft)
18/09/2012 02:40 13,3 C 82 % 1014,2 hPa 0,0 mm 0,0 km/h (0 Bft) S-SO 202 0 min 0 W/m 10,3 C 13,3 C 0,0 km/h (0 Bft)
18/09/2012 02:50 13,3 C 84 % 1014,2 hPa 0,0 mm 0,7 km/h (0 Bft) SO 225 0 min 0 W/m 10,7 C 13,3 C 3,2 km/h (1 Bft)
18/09/2012 03:02 13,4 C 85 % 1014,1 hPa 0,0 mm 0,0 km/h (0 Bft) SO 225 0 min 0 W/m 10,9 C 13,4 C 0,0 km/h (0 Bft)
18/09/2012 03:10 13,5 C 85 % 1014,0 hPa 0,0 mm 1,1 km/h (1 Bft) S-SO 202 0 min 0 W/m 11,0 C 13,5 C 4,3 km/h (1 Bft)
18/09/2012 03:20 13,5 C 85 % 1014,0 hPa 0,0 mm 0,7 km/h (0 Bft) SO 225 0 min 0 W/m 11,0 C 13,5 C 3,6 km/h (1 Bft)
18/09/2012 03:30 13,4 C 85 % 1014,0 hPa 0,0 mm 0,0 km/h (0 Bft) SO 225 0 min 0 W/m 10,9 C 13,4 C 0,0 km/h (0 Bft)
18/09/2012 03:40 13,4 C 85 % 1013,9 hPa 0,0 mm 0,0 km/h (0 Bft) S-SO 202 0 min 0 W/m 10,9 C 13,4 C 0,0 km/h (0 Bft)
18/09/2012 03:50 13,3 C 85 % 1013,7 hPa 0,0 mm 0,7 km/h (0 Bft) S-SE 157 0 min 0 W/m 10,8 C 13,3 C 2,9 km/h (1 Bft)
18/09/2012 04:00 13,3 C 86 % 1013,6 hPa 0,0 mm 0,0 km/h (0 Bft) S-SO 202 0 min 0 W/m 11,0 C 13,3 C 0,0 km/h (0 Bft)
18/09/2012 04:10 13,1 C 86 % 1013,5 hPa 0,0 mm 0,0 km/h (0 Bft) S-SO 202 0 min 0 W/m 10,8 C 13,1 C 0,0 km/h (0 Bft)
18/09/2012 04:20 13,1 C 86 % 1013,5 hPa 0,0 mm 0,7 km/h (0 Bft) S-SO 202 0 min 0 W/m 10,8 C 13,1 C 4,3 km/h (1 Bft)
18/09/2012 04:30 13,1 C 86 % 1013,4 hPa 0,0 mm 0,0 km/h (0 Bft) S 180 0 min 0 W/m 10,8 C 13,1 C 0,0 km/h (0 Bft)
18/09/2012 04:40 13,1 C 86 % 1013,4 hPa 0,0 mm 0,4 km/h (0 Bft) S-SE 157 0 min 0 W/m 10,8 C 13,1 C 3,2 km/h (1 Bft)
18/09/2012 04:50 13,2 C 86 % 1013,3 hPa 0,0 mm 0,0 km/h (0 Bft) SE 135 0 min 0 W/m 10,9 C 13,2 C 0,0 km/h (0 Bft)
18/09/2012 05:00 13,2 C 86 % 1013,3 hPa 0,0 mm 0,0 km/h (0 Bft) S-SO 202 0 min 0 W/m 10,9 C 13,2 C 0,0 km/h (0 Bft)
18/09/2012 05:10 13,1 C 85 % 1013,2 hPa 0,0 mm 0,0 km/h (0 Bft) E 90 0 min 0 W/m 10,6 C 13,1 C 0,0 km/h (0 Bft)
18/09/2012 05:20 12,8 C 85 % 1013,3 hPa 0,0 mm 0,0 km/h (0 Bft) E 90 0 min 0 W/m 10,3 C 12,8 C 0,0 km/h (0 Bft)
18/09/2012 05:30 12,6 C 85 % 1013,3 hPa 0,0 mm 0,0 km/h (0 Bft) E 90 0 min 0 W/m 10,1 C 12,6 C 0,0 km/h (0 Bft)
18/09/2012 05:40 12,5 C 85 % 1013,3 hPa 0,0 mm 0,0 km/h (0 Bft) E 90 0 min 0 W/m 10,0 C 12,5 C 0,0 km/h (0 Bft)
18/09/2012 05:50 12,4 C 85 % 1013,4 hPa 0,0 mm 0,0 km/h (0 Bft) E 90 0 min 0 W/m 9,9 C 12,4 C 0,0 km/h (0 Bft)
18/09/2012 06:00 12,5 C 86 % 1013,5 hPa 0,0 mm 0,7 km/h (0 Bft) O 270 0 min 0 W/m 10,2 C 12,5 C 4,3 km/h (1 Bft)
18/09/2012 06:10 12,6 C 87 % 1013,5 hPa 0,0 mm 1,1 km/h (1 Bft) O-SO 247 0 min 0 W/m 10,5 C 12,6 C 4,3 km/h (1 Bft)
18/09/2012 06:20 12,8 C 88 % 1013,6 hPa 0,0 mm 4,3 km/h (1 Bft) O-SO 247 0 min 0 W/m 10,9 C 12,8 C 7,2 km/h (2 Bft)
18/09/2012 06:30 13,0 C 89 % 1013,5 hPa 0,0 mm 3,2 km/h (1 Bft) S-SO 202 0 min 0 W/m 11,2 C 13,0 C 4,3 km/h (1 Bft)
18/09/2012 06:40 13,1 C 90 % 1013,5 hPa 0,0 mm 0,0 km/h (0 Bft) SO 225 0 min 0 W/m 11,5 C 13,1 C 3,2 km/h (1 Bft)
18/09/2012 06:50 13,1 C 90 % 1013,5 hPa 0,0 mm 0,7 km/h (0 Bft) SO 225 0 min 0 W/m 11,5 C 13,1 C 4,3 km/h (1 Bft)
18/09/2012 07:00 13,1 C 90 % 1013,6 hPa 0,0 mm 0,7 km/h (0 Bft) O-SO 247 0 min 0 W/m 11,5 C 13,1 C 2,9 km/h (1 Bft)
18/09/2012 07:10 13,1 C 90 % 1013,4 hPa 0,0 mm 0,7 km/h (0 Bft) SO 225 0 min 0 W/m 11,5 C 13,1 C 0,7 km/h (0 Bft)
18/09/2012 07:20 13,2 C 90 % 1013,5 hPa 0,0 mm 0,4 km/h (0 Bft) S-SO 202 0 min 0 W/m 11,6 C 13,2 C 3,2 km/h (1 Bft)
18/09/2012 07:30 13,2 C 90 % 1013,9 hPa 0,0 mm 2,2 km/h (1 Bft) O-SO 247 0 min 0 W/m 11,6 C 13,2 C 3,2 km/h (1 Bft)
18/09/2012 07:40 13,1 C 90 % 1013,9 hPa 0,0 mm 0,4 km/h (0 Bft) SO 225 0 min 0 W/m 11,5 C 13,1 C 0,4 km/h (0 Bft)
18/09/2012 07:50 13,1 C 91 % 1014,0 hPa 0,0 mm 0,7 km/h (0 Bft) S-SO 202 0 min 0 W/m 11,7 C 13,1 C 3,6 km/h (1 Bft)
18/09/2012 08:00 13,1 C 91 % 1014,1 hPa 0,0 mm 2,5 km/h (1 Bft) SO 225 0 min 0 W/m 11,7 C 13,1 C 4,0 km/h (1 Bft)
18/09/2012 08:10 13,1 C 91 % 1014,1 hPa 0,0 mm 0,4 km/h (0 Bft) SO 225 0 min 0 W/m 11,7 C 13,1 C 3,2 km/h (1 Bft)
18/09/2012 08:20 13,1 C 91 % 1014,1 hPa 0,0 mm 0,7 km/h (0 Bft) SO 225 0 min 0 W/m 11,7 C 13,1 C 3,6 km/h (1 Bft)
18/09/2012 08:30 13,1 C 91 % 1014,2 hPa 0,0 mm 2,2 km/h (1 Bft) SO 225 0 min 0 W/m 11,7 C 13,1 C 4,0 km/h (1 Bft)
18/09/2012 08:40 13,2 C 91 % 1014,3 hPa 0,0 mm 0,0 km/h (0 Bft) SO 225 0 min 0 W/m 11,8 C 13,2 C 0,0 km/h (0 Bft)
18/09/2012 08:50 13,3 C 91 % 1014,4 hPa 0,0 mm 2,5 km/h (1 Bft) S-SO 202 0 min 0 W/m 11,9 C 13,3 C 4,3 km/h (1 Bft)
18/09/2012 09:00 13,3 C 91 % 1014,4 hPa 0,0 mm 0,0 km/h (0 Bft) O-SO 247 0 min 0 W/m 11,9 C 13,3 C 0,0 km/h (0 Bft)
18/09/2012 09:10 13,4 C 92 % 1014,5 hPa 0,0 mm 0,0 km/h (0 Bft) O-SO 247 0 min 0 W/m 12,1 C 13,4 C 0,0 km/h (0 Bft)
18/09/2012 09:20 13,5 C 91 % 1014,5 hPa 0,0 mm 0,0 km/h (0 Bft) O-SO 247 0 min 0 W/m 12,1 C 13,5 C 0,0 km/h (0 Bft)
18/09/2012 09:30 13,6 C 91 % 1014,6 hPa 0,0 mm 0,0 km/h (0 Bft) O 270 0 min 0 W/m 12,2 C 13,6 C 0,0 km/h (0 Bft)
18/09/2012 09:40 13,8 C 91 % 1014,5 hPa 0,0 mm 0,0 km/h (0 Bft) O 270 0 min 0 W/m 12,4 C 13,8 C 0,0 km/h (0 Bft)
18/09/2012 09:50 13,8 C 91 % 1014,4 hPa 0,0 mm 0,4 km/h (0 Bft) N 360 0 min 0 W/m 12,4 C 13,8 C 0,4 km/h (0 Bft)
18/09/2012 10:00 14,0 C 91 % 1014,6 hPa 0,0 mm 0,0 km/h (0 Bft) N-NE 22 0 min 0 W/m 12,6 C 14,0 C 0,0 km/h (0 Bft)
18/09/2012 10:10 14,1 C 91 % 1014,7 hPa 0,0 mm 0,0 km/h (0 Bft) S-SO 202 0 min 0 W/m 12,7 C 14,1 C 0,0 km/h (0 Bft)
18/09/2012 10:20 14,3 C 91 % 1015,0 hPa 0,0 mm 0,0 km/h (0 Bft) SO 225 0 min 0 W/m 12,8 C 14,3 C 0,0 km/h (0 Bft)
18/09/2012 10:30 14,4 C 91 % 1015,2 hPa 0,0 mm 0,7 km/h (0 Bft) O-SO 247 0 min 0 W/m 12,9 C 14,4 C 0,7 km/h (0 Bft)
18/09/2012 10:40 14,6 C 90 % 1015,2 hPa 0,0 mm 0,7 km/h (0 Bft) S-SO 202 0 min 0 W/m 13,0 C 14,6 C 4,3 km/h (1 Bft)
18/09/2012 10:50 14,6 C 90 % 1015,5 hPa 0,0 mm 0,0 km/h (0 Bft) SO 225 0 min 0 W/m 13,0 C 14,6 C 0,0 km/h (0 Bft)
18/09/2012 11:00 14,8 C 89 % 1015,5 hPa 0,0 mm 0,0 km/h (0 Bft) N 360 0 min 0 W/m 13,0 C 14,8 C 0,0 km/h (0 Bft)
18/09/2012 11:10 14,8 C 89 % 1015,6 hPa 0,0 mm 0,0 km/h (0 Bft) S-SO 202 0 min 0 W/m 13,0 C 14,8 C 0,0 km/h (0 Bft)
18/09/2012 11:20 14,9 C 89 % 1015,8 hPa 0,0 mm 1,1 km/h (1 Bft) S-SO 202 0 min 0 W/m 13,1 C 14,9 C 4,0 km/h (1 Bft)
18/09/2012 11:30 15,1 C 89 % 1015,8 hPa 0,0 mm 2,9 km/h (1 Bft) SO 225 0 min 0 W/m 13,3 C 15,1 C 6,5 km/h (2 Bft)
18/09/2012 11:40 15,2 C 89 % 1015,7 hPa 0,0 mm 0,4 km/h (0 Bft) O-SO 247 0 min 0 W/m 13,4 C 15,2 C 0,4 km/h (0 Bft)
18/09/2012 11:50 15,5 C 88 % 1015,7 hPa 0,0 mm 1,4 km/h (1 Bft) NO 315 0 min 0 W/m 13,5 C 15,5 C 2,9 km/h (1 Bft)
18/09/2012 12:00 15,8 C 87 % 1015,7 hPa 0,0 mm 1,1 km/h (1 Bft) NO 315 0 min 0 W/m 13,6 C 15,8 C 1,1 km/h (1 Bft)
18/09/2012 12:10 16,2 C 87 % 1015,7 hPa 0,0 mm 1,1 km/h (1 Bft) NO 315 0 min 0 W/m 14,0 C 16,2 C 1,1 km/h (1 Bft)
18/09/2012 12:20 16,6 C 86 % 1015,8 hPa 0,0 mm 1,1 km/h (1 Bft) O 270 0 min 0 W/m 14,2 C 16,6 C 3,6 km/h (1 Bft)
18/09/2012 12:30 16,8 C 84 % 1015,9 hPa 0,0 mm 0,4 km/h (0 Bft) O-NO 292 0 min 0 W/m 14,1 C 16,8 C 0,4 km/h (0 Bft)
18/09/2012 12:40 16,9 C 83 % 1015,8 hPa 0,0 mm 0,0 km/h (0 Bft) N-NE 22 0 min 0 W/m 14,0 C 16,9 C 2,9 km/h (1 Bft)
18/09/2012 12:50 17,0 C 82 % 1015,8 hPa 0,0 mm 1,4 km/h (1 Bft) NO 315 0 min 0 W/m 13,9 C 17,0 C 7,2 km/h (2 Bft)
18/09/2012 13:00 17,1 C 82 % 1015,6 hPa 0,0 mm 4,7 km/h (1 Bft) N-NO 337 0 min 0 W/m 14,0 C 17,1 C 7,9 km/h (2 Bft)
18/09/2012 13:10 17,3 C 81 % 1015,6 hPa 0,0 mm 1,4 km/h (1 Bft) NE 45 0 min 0 W/m 14,0 C 17,3 C 3,6 km/h (1 Bft)
18/09/2012 13:20 17,4 C 80 % 1015,7 hPa 0,0 mm 0,0 km/h (0 Bft) O 270 0 min 0 W/m 13,9 C 17,4 C 0,0 km/h (0 Bft)
18/09/2012 13:30 17,4 C 79 % 1015,8 hPa 0,0 mm 1,8 km/h (1 Bft) N-NO 337 0 min 0 W/m 13,7 C 17,4 C 3,6 km/h (1 Bft)
18/09/2012 13:40 17,5 C 79 % 1015,7 hPa 0,0 mm 1,1 km/h (1 Bft) N-NO 337 0 min 0 W/m 13,8 C 17,5 C 1,1 km/h (1 Bft)
18/09/2012 13:50 17,6 C 79 % 1016,0 hPa 0,0 mm 0,0 km/h (0 Bft) O-NO 292 0 min 0 W/m 13,9 C 17,6 C 0,0 km/h (0 Bft)
18/09/2012 14:00 17,6 C 78 % 1015,9 hPa 0,0 mm 4,0 km/h (1 Bft) O-NO 292 0 min 0 W/m 13,7 C 17,6 C 11,2 km/h (2 Bft)
18/09/2012 14:10 17,7 C 77 % 1015,9 hPa 0,0 mm 2,2 km/h (1 Bft) NO 315 0 min 0 W/m 13,6 C 17,7 C 6,8 km/h (2 Bft)
18/09/2012 14:20 17,6 C 77 % 1015,8 hPa 0,0 mm 4,0 km/h (1 Bft) N 360 0 min 0 W/m 13,5 C 17,6 C 7,6 km/h (2 Bft)
18/09/2012 14:30 17,7 C 77 % 1015,9 hPa 0,0 mm 0,0 km/h (0 Bft) NE 45 0 min 0 W/m 13,6 C 17,7 C 0,0 km/h (0 Bft)
18/09/2012 14:40 17,7 C 77 % 1015,9 hPa 0,0 mm 1,1 km/h (1 Bft) NO 315 0 min 0 W/m 13,6 C 17,7 C 4,3 km/h (1 Bft)
18/09/2012 14:50 17,8 C 77 % 1015,8 hPa 0,0 mm 1,8 km/h (1 Bft) N-NO 337 0 min 0 W/m 13,7 C 17,8 C 6,5 km/h (2 Bft)
18/09/2012 15:00 17,9 C 77 % 1015,9 hPa 0,0 mm 0,0 km/h (0 Bft) N 360 0 min 0 W/m 13,8 C 17,9 C 0,0 km/h (0 Bft)
18/09/2012 15:10 17,8 C 77 % 1015,9 hPa 0,0 mm 0,0 km/h (0 Bft) NE 45 0 min 0 W/m 13,7 C 17,8 C 0,0 km/h (0 Bft)
18/09/2012 15:20 17,8 C 76 % 1015,9 hPa 0,0 mm 0,0 km/h (0 Bft) N-NE 22 0 min 0 W/m 13,5 C 17,8 C 0,0 km/h (0 Bft)
18/09/2012 15:30 17,8 C 77 % 1016,0 hPa 0,0 mm 0,0 km/h (0 Bft) N-NE 22 0 min 0 W/m 13,7 C 17,8 C 0,0 km/h (0 Bft)
18/09/2012 15:40 17,7 C 77 % 1016,0 hPa 0,0 mm 0,0 km/h (0 Bft) N-NE 22 0 min 0 W/m 13,6 C 17,7 C 0,0 km/h (0 Bft)
18/09/2012 15:50 17,6 C 77 % 1016,0 hPa 0,0 mm 0,0 km/h (0 Bft) N-NE 22 0 min 0 W/m 13,5 C 17,6 C 0,0 km/h (0 Bft)
18/09/2012 16:00 17,5 C 77 % 1016,0 hPa 0,0 mm 0,0 km/h (0 Bft) N-NE 22 0 min 0 W/m 13,4 C 17,5 C 0,0 km/h (0 Bft)
18/09/2012 16:10 17,5 C 77 % 1016,0 hPa 0,0 mm 0,0 km/h (0 Bft) N-NE 22 0 min 0 W/m 13,4 C 17,5 C 0,0 km/h (0 Bft)
18/09/2012 16:20 17,5 C 78 % 1016,0 hPa 0,0 mm 0,0 km/h (0 Bft) N 360 0 min 0 W/m 13,6 C 17,5 C 0,0 km/h (0 Bft)
18/09/2012 16:30 17,5 C 78 % 1015,9 hPa 0,0 mm 0,0 km/h (0 Bft) N 360 0 min 0 W/m 13,6 C 17,5 C 0,0 km/h (0 Bft)
18/09/2012 16:40 17,5 C 78 % 1015,9 hPa 0,0 mm 0,0 km/h (0 Bft) N 360 0 min 0 W/m 13,6 C 17,5 C 0,0 km/h (0 Bft)
18/09/2012 16:50 17,5 C 79 % 1015,9 hPa 0,0 mm 0,0 km/h (0 Bft) N 360 0 min 0 W/m 13,8 C 17,5 C 0,0 km/h (0 Bft)
18/09/2012 17:00 17,5 C 79 % 1015,8 hPa 0,0 mm 2,2 km/h (1 Bft) S-SO 202 0 min 0 W/m 13,8 C 17,5 C 2,2 km/h (1 Bft)
18/09/2012 17:10 17,4 C 79 % 1015,8 hPa 0,0 mm 0,0 km/h (0 Bft) O-SO 247 0 min 0 W/m 13,7 C 17,4 C 0,0 km/h (0 Bft)
18/09/2012 17:20 17,4 C 80 % 1015,8 hPa 0,0 mm 0,0 km/h (0 Bft) O-SO 247 0 min 0 W/m 13,9 C 17,4 C 0,0 km/h (0 Bft)
18/09/2012 17:30 17,4 C 80 % 1015,8 hPa 0,0 mm 0,4 km/h (0 Bft) O 270 0 min 0 W/m 13,9 C 17,4 C 0,4 km/h (0 Bft)
18/09/2012 17:40 17,3 C 81 % 1015,8 hPa 0,0 mm 0,0 km/h (0 Bft) O-SO 247 0 min 0 W/m 14,0 C 17,3 C 0,0 km/h (0 Bft)
18/09/2012 17:50 17,1 C 81 % 1015,9 hPa 0,0 mm 0,0 km/h (0 Bft) O-SO 247 0 min 0 W/m 13,8 C 17,1 C 0,0 km/h (0 Bft)
18/09/2012 18:00 16,9 C 82 % 1015,8 hPa 0,0 mm 0,7 km/h (0 Bft) O-SO 247 0 min 0 W/m 13,8 C 16,9 C 3,2 km/h (1 Bft)
18/09/2012 18:10 16,8 C 82 % 1015,8 hPa 0,0 mm 0,4 km/h (0 Bft) SO 225 0 min 0 W/m 13,7 C 16,8 C 0,4 km/h (0 Bft)
18/09/2012 18:20 16,6 C 83 % 1015,8 hPa 0,0 mm 0,0 km/h (0 Bft) SO 225 0 min 0 W/m 13,7 C 16,6 C 0,0 km/h (0 Bft)
18/09/2012 18:30 16,6 C 83 % 1016,0 hPa 0,0 mm 0,0 km/h (0 Bft) O-SO 247 0 min 0 W/m 13,7 C 16,6 C 0,0 km/h (0 Bft)
18/09/2012 18:40 13,1 C 87 % 1023,0 hPa 0,0 mm 0,0 km/h (0 Bft) NE 45 0 min 0 W/m 11,0 C 13,1 C 0,0 km/h (0 Bft)
18/09/2012 18:50 16,3 C 84 % 1016,0 hPa 0,0 mm 2,9 km/h (1 Bft) O 270 0 min 0 W/m 13,6 C 16,3 C 4,0 km/h (1 Bft)
18/09/2012 19:00 16,2 C 84 % 1016,1 hPa 0,0 mm 0,4 km/h (0 Bft) O 270 0 min 0 W/m 13,5 C 16,2 C 3,6 km/h (1 Bft)
18/09/2012 19:10 15,9 C 84 % 1016,1 hPa 0,0 mm 0,0 km/h (0 Bft) O 270 0 min 0 W/m 13,2 C 15,9 C 0,0 km/h (0 Bft)
18/09/2012 19:20 15,8 C 85 % 1016,1 hPa 0,0 mm 0,0 km/h (0 Bft) O 270 0 min 0 W/m 13,3 C 15,8 C 0,0 km/h (0 Bft)
18/09/2012 19:30 15,6 C 86 % 1016,2 hPa 0,0 mm 0,7 km/h (0 Bft) S-SO 202 0 min 0 W/m 13,3 C 15,6 C 0,7 km/h (0 Bft)
18/09/2012 19:40 15,5 C 86 % 1016,2 hPa 0,0 mm 0,0 km/h (0 Bft) S-SO 202 0 min 0 W/m 13,2 C 15,5 C 0,0 km/h (0 Bft)
18/09/2012 19:50 15,4 C 86 % 1016,2 hPa 0,0 mm 0,0 km/h (0 Bft) S-SO 202 0 min 0 W/m 13,1 C 15,4 C 0,0 km/h (0 Bft)
18/09/2012 20:00 15,4 C 87 % 1016,2 hPa 0,0 mm 0,0 km/h (0 Bft) S-SO 202 0 min 0 W/m 13,2 C 15,4 C 0,0 km/h (0 Bft)
18/09/2012 20:10 15,3 C 87 % 1016,3 hPa 0,0 mm 0,0 km/h (0 Bft) S-SO 202 0 min 0 W/m 13,1 C 15,3 C 0,0 km/h (0 Bft)
18/09/2012 20:20 15,2 C 87 % 1016,5 hPa 0,0 mm 0,0 km/h (0 Bft) S-SO 202 0 min 0 W/m 13,0 C 15,2 C 0,0 km/h (0 Bft)
18/09/2012 20:30 15,1 C 87 % 1016,5 hPa 0,0 mm 0,0 km/h (0 Bft) S-SO 202 0 min 0 W/m 13,0 C 15,1 C 0,0 km/h (0 Bft)
18/09/2012 20:40 14,9 C 87 % 1016,5 hPa 0,0 mm 0,0 km/h (0 Bft) S-SO 202 0 min 0 W/m 12,8 C 14,9 C 0,0 km/h (0 Bft)
18/09/2012 20:50 14,6 C 87 % 1016,6 hPa 0,0 mm 0,0 km/h (0 Bft) S-SO 202 0 min 0 W/m 12,5 C 14,6 C 0,0 km/h (0 Bft)
18/09/2012 21:00 14,4 C 87 % 1016,8 hPa 0,0 mm 0,0 km/h (0 Bft) S-SO 202 0 min 0 W/m 12,3 C 14,4 C 0,0 km/h (0 Bft)
18/09/2012 21:10 14,1 C 87 % 1016,9 hPa 0,0 mm 0,0 km/h (0 Bft) S-SO 202 0 min 0 W/m 12,0 C 14,1 C 0,0 km/h (0 Bft)
18/09/2012 21:20 13,9 C 88 % 1017,0 hPa 0,0 mm 0,0 km/h (0 Bft) S-SO 202 0 min 0 W/m 11,9 C 13,9 C 0,0 km/h (0 Bft)
18/09/2012 21:30 13,9 C 88 % 1017,1 hPa 0,0 mm 0,0 km/h (0 Bft) S-SO 202 0 min 0 W/m 11,9 C 13,9 C 0,0 km/h (0 Bft)
18/09/2012 21:40 13,9 C 88 % 1017,1 hPa 0,0 mm 0,0 km/h (0 Bft) S-SO 202 0 min 0 W/m 11,9 C 13,9 C 0,0 km/h (0 Bft)
18/09/2012 21:50 13,9 C 88 % 1017,1 hPa 0,0 mm 0,0 km/h (0 Bft) S-SO 202 0 min 0 W/m 11,9 C 13,9 C 0,0 km/h (0 Bft)
18/09/2012 22:00 14,0 C 89 % 1017,1 hPa 0,0 mm 0,0 km/h (0 Bft) S-SO 202 0 min 0 W/m 12,2 C 14,0 C 0,0 km/h (0 Bft)
18/09/2012 22:10 13,9 C 89 % 1017,2 hPa 0,0 mm 0,0 km/h (0 Bft) S-SO 202 0 min 0 W/m 12,1 C 13,9 C 0,0 km/h (0 Bft)
18/09/2012 22:20 13,9 C 90 % 1017,3 hPa 0,0 mm 0,0 km/h (0 Bft) S-SO 202 0 min 0 W/m 12,3 C 13,9 C 0,0 km/h (0 Bft)
18/09/2012 22:30 14,0 C 90 % 1017,3 hPa 0,0 mm 0,0 km/h (0 Bft) S-SO 202 0 min 0 W/m 12,4 C 14,0 C 0,0 km/h (0 Bft)
18/09/2012 22:40 14,0 C 90 % 1017,4 hPa 0,0 mm 0,0 km/h (0 Bft) N 360 0 min 0 W/m 12,4 C 14,0 C 0,0 km/h (0 Bft)
18/09/2012 22:50 14,1 C 90 % 1017,6 hPa 0,0 mm 0,0 km/h (0 Bft) O 270 0 min 0 W/m 12,5 C 14,1 C 0,0 km/h (0 Bft)
18/09/2012 23:00 14,2 C 90 % 1017,7 hPa 0,0 mm 1,4 km/h (1 Bft) N-NE 22 0 min 0 W/m 12,6 C 14,2 C 4,3 km/h (1 Bft)
_ Min-Heure 05:50 00:10 05:10 - 22:50 - - - - 00:50 05:50 22:50
Minimum _ 12,4 C 69 % 1013,2 hPa - 0,0 km/h (0 Bft) - - - - 9,6 C 12,4 C 0,0 km/h (0 Bft)
_ Max-Heure 15:00 09:10 18:40 23:00 13:00 - - 23:00 23:00 12:20 15:00 14:00
Maximum _ 17,9 C 92 % 1023,0 hPa 0,0 mm 4,7 km/h
N-NO (1 Bft)
- - 0 min 0 W/m 14,2 C 17,9 C 11,2 km/h
O-NO (2 Bft)
Moyenne _ 14,9 C 84 % 1015,2 hPa #0,0 mm 0,5 km/h (0 Bft) S-SO - #0 min. 0 W/m 12,2 C 14,9 C 1,4 km/h (1 Bft)
Saint Bonnet de Bellac- Haute Vienne - France